Location: Stara Lesna
(49.1528°N, 20.2911°E)
Time: 09:45:38
(UTC+02:00)

Cosmos 2322 Rocket - Pass Details

Date: 13 July 2020
Orbit: 832 x 851 km, 71.0° (Epoch: 05 August)

Event Time Altitude Azimuth Distance (km) Brightness Sun altitude
Rises 03:15:24 0° 335° (NNW) 3,404 5.8 -11.5°
Reaches altitude 10° 03:18:09 10° 346° (NNW) 2,469 5.2 -11.3°
Maximum altitude 03:23:07 30° 47° (NE) 1,469 4.4 -10.8°
Drops below altitude 10° 03:28:04 10° 108° (ESE) 2,469 4.9 -10.3°
Sets 03:30:49 0° 119° (ESE) 3,404 5.5 -10.0°
